Rocky Mount, NC

7:03 PM EDT on August 28, 2016 (GMT -0400)
Rocky Mount-Wilson Regional

Weather History for KRWI - June, 2013

Change the Weather History Date:

Sunday, June 30, 2013

  Actual Average Record
Temperature  
Mean Temperature 78 °F -  
Max Temperature 84 °F 84 °F 103 °F (1959)
Min Temperature 73 °F 63 °F 0 °F (1990)
Cooling Degree Days 12    
Growing Degree Days 28 (Base 50)    
Moisture  
Dew Point 72 °F    
Average Humidity 83    
Maximum Humidity 94    
Minimum Humidity 74    
Precipitation  
Precipitation 0.14 in - - ()
Sea Level Pressure  
Sea Level Pressure 29.82 in    
Wind  
Wind Speed 6 mph (South)    
Max Wind Speed 12 mph    
Max Gust Speed 18 mph    
Visibility 10 miles    
Events Rain    
Averages and records for this station are not official NWS values.
T = Trace of Precipitation, MM = Missing Value Source: NWS Daily Summary

Daily Weather History Graph

Daily Weather History Graph

Search for Another Location

Airport or City:

Trip Planner

Search our weather history database for the weather conditions in past years. The results will help you decide how hot, cold, wet, or windy it might be!

Date:

Astronomy

Jun. 30, 2013 Rise Set
Actual Time 5:58 AM EDT 8:31 PM EDT
Civil Twilight 5:28 AM EDT 9:01 PM EDT
Nautical Twilight 4:51 AM EDT 9:39 PM EDT
Astronomical Twilight 4:09 AM EDT 10:20 PM EDT
Moon 12:46 AM EDT (6/30) 1:53 PM EDT (6/30)
Length of Visible Light 15h 33m
Length of Day
14h 33m
Last Quarter, 45% of the Moon is Illuminated
Jun 30
Last Quarter
Jul 8
New
Jul 15
First Quarter
Jul 22
Full
Jul 29
Last Quarter

Hourly Weather History & Observations

Time (EDT) Temp. Heat Index Dew Point Humidity Pressure Visibility Wind Dir Wind Speed Gust Speed Precip Events Conditions
12:53 AM 75.9 °F - 71.1 °F 85% 29.76 in 10.0 mi South 6.9 mph - N/A   Scattered Clouds
1:08 AM 75.2 °F - 69.8 °F 83% 29.77 in 10.0 mi South 6.9 mph - N/A   Mostly Cloudy
1:53 AM 75.0 °F - 70.0 °F 84% 29.76 in 10.0 mi South 4.6 mph - N/A   Mostly Cloudy
2:53 AM 75.0 °F - 70.0 °F 84% 29.77 in 10.0 mi South 6.9 mph - N/A   Overcast
3:53 AM 73.9 °F - 69.1 °F 85% 29.75 in 10.0 mi South 5.8 mph - N/A   Clear
4:51 AM 73.4 °F - 69.8 °F 88% 29.76 in 10.0 mi Variable 4.6 mph - N/A   Mostly Cloudy
4:53 AM 73.0 °F - 69.1 °F 87% 29.75 in 10.0 mi SSE 3.5 mph - N/A   Mostly Cloudy
5:53 AM 73.0 °F - 70.0 °F 90% 29.77 in 10.0 mi SSE 3.5 mph - N/A   Overcast
6:12 AM 73.4 °F - 69.8 °F 88% 29.77 in 10.0 mi SSE 4.6 mph - N/A   Scattered Clouds
6:53 AM 73.0 °F - 70.0 °F 90% 29.79 in 10.0 mi SSE 3.5 mph - N/A   Scattered Clouds
7:02 AM 73.4 °F - 69.8 °F 88% 29.80 in 10.0 mi South 3.5 mph - N/A   Mostly Cloudy
7:46 AM 73.4 °F - 71.6 °F 94% 29.81 in 10.0 mi South 8.1 mph - N/A   Overcast
7:53 AM 73.9 °F - 71.1 °F 91% 29.81 in 10.0 mi SSW 6.9 mph - N/A   Overcast
8:25 AM 75.2 °F - 71.6 °F 89% 29.82 in 10.0 mi South 6.9 mph - N/A   Mostly Cloudy
8:46 AM 75.2 °F - 71.6 °F 89% 29.82 in 10.0 mi South 5.8 mph - N/A   Overcast
8:53 AM 75.9 °F - 72.0 °F 87% 29.81 in 10.0 mi South 5.8 mph - N/A   Overcast
9:53 AM 78.1 °F - 73.0 °F 84% 29.81 in 10.0 mi South 5.8 mph - N/A   Overcast
10:36 AM 78.8 °F - 73.4 °F 83% 29.81 in 10.0 mi Variable 4.6 mph - N/A   Overcast
10:53 AM 79.0 °F - 73.0 °F 82% 29.82 in 10.0 mi South 5.8 mph - N/A   Mostly Cloudy
11:53 AM 79.0 °F - 73.0 °F 82% 29.83 in 10.0 mi SSE 6.9 mph - N/A   Mostly Cloudy
12:11 PM 78.8 °F - 73.4 °F 83% 29.84 in 10.0 mi SSE 5.8 mph - N/A   Overcast
12:29 PM 80.6 °F 85.4 °F 73.4 °F 79% 29.83 in 10.0 mi SE 8.1 mph - N/A   Mostly Cloudy
12:53 PM 81.0 °F 85.8 °F 73.0 °F 77% 29.82 in 10.0 mi South 8.1 mph - N/A   Mostly Cloudy
1:19 PM 82.4 °F 88.2 °F 73.4 °F 74% 29.82 in 10.0 mi South 4.6 mph - N/A   Scattered Clouds
1:27 PM 82.4 °F 88.2 °F 73.4 °F 74% 29.82 in 10.0 mi SSE 6.9 mph - N/A   Mostly Cloudy
1:53 PM 81.0 °F 85.2 °F 72.0 °F 74% 29.81 in 10.0 mi SSE 8.1 mph - N/A   Mostly Cloudy
2:02 PM 82.4 °F 88.2 °F 73.4 °F 74% 29.82 in 10.0 mi South 8.1 mph - N/A   Scattered Clouds
2:30 PM 82.4 °F 88.2 °F 73.4 °F 74% 29.81 in 10.0 mi SE 6.9 mph - N/A   Mostly Cloudy
2:46 PM 82.4 °F 88.2 °F 73.4 °F 74% 29.81 in 10.0 mi SSE 8.1 mph - N/A   Scattered Clouds
2:53 PM 82.0 °F 87.4 °F 73.0 °F 74% 29.81 in 10.0 mi South 8.1 mph - N/A   Scattered Clouds
3:53 PM 81.0 °F 85.8 °F 73.0 °F 77% 29.81 in 10.0 mi South 5.8 mph - N/A   Clear
4:31 PM 80.6 °F 85.4 °F 73.4 °F 79% 29.81 in 10.0 mi South 8.1 mph - N/A   Mostly Cloudy
4:53 PM 81.0 °F 85.2 °F 72.0 °F 74% 29.81 in 10.0 mi South 10.4 mph - N/A   Scattered Clouds
5:23 PM 80.6 °F 85.4 °F 73.4 °F 79% 29.81 in 10.0 mi Variable 5.8 mph - N/A   Mostly Cloudy
5:41 PM 82.4 °F 88.2 °F 73.4 °F 74% 29.81 in 10.0 mi South 11.5 mph - N/A   Scattered Clouds
5:53 PM 82.0 °F 87.4 °F 73.0 °F 74% 29.81 in 10.0 mi SSE 11.5 mph 18.4 mph N/A   Scattered Clouds
6:53 PM 80.1 °F 84.5 °F 73.9 °F 81% 29.83 in 7.0 mi South 5.8 mph - 0.00 in Rain Light Rain
7:05 PM 78.8 °F - 73.4 °F 83% 29.84 in 2.0 mi South 4.6 mph - 0.09 in Rain Light Rain
7:14 PM 78.8 °F - 73.4 °F 83% 29.84 in 10.0 mi South 6.9 mph - 0.09 in   Scattered Clouds
7:53 PM 77.0 °F - 73.9 °F 90% 29.84 in 8.0 mi Calm Calm - 0.09 in   Clear
8:53 PM 73.9 °F - 71.1 °F 91% 29.86 in 10.0 mi ESE 4.6 mph - 0.03 in   Scattered Clouds
9:48 PM 73.4 °F - 69.8 °F 88% 29.88 in 10.0 mi Calm Calm - N/A   Mostly Cloudy
9:53 PM 73.0 °F - 70.0 °F 90% 29.88 in 8.0 mi Calm Calm - 0.01 in Rain Light Rain
10:00 PM 73.4 °F - 71.6 °F 94% 29.88 in 9.0 mi South 3.5 mph - 0.00 in Rain Light Rain
10:31 PM 73.4 °F - 71.6 °F 94% 29.89 in 9.0 mi South 3.5 mph - 0.00 in   Scattered Clouds
10:53 PM 73.9 °F - 70.0 °F 87% 29.90 in 10.0 mi West 5.8 mph - 0.00 in Rain Light Rain
11:11 PM 73.4 °F - 69.8 °F 88% 29.90 in 10.0 mi WNW 3.5 mph - 0.01 in   Overcast
11:53 PM 73.0 °F - 69.1 °F 87% 29.89 in 10.0 mi Calm Calm - 0.01 in   Overcast